TimeBST,TemperatureF,Dew PointF,Humidity,Sea Level PressureIn,VisibilityMPH,Wind Direction,Wind SpeedMPH,Gust SpeedMPH,PrecipitationIn,Events,Conditions,WindDirDegrees,DateUTC
8:20 AM,48.2,41.0,76,29.42,6.2,SW,20.7,-,N/A,Rain,Light Rain,230,2013-05-14 07:20:00
8:50 AM,44.6,39.2,81,29.42,6.2,WSW,25.3,36.8,N/A,Rain,Rain,240,2013-05-14 07:50:00
9:20 AM,44.6,41.0,87,29.42,6.2,WSW,18.4,-,N/A,Rain,Light Rain,240,2013-05-14 08:20:00
9:50 AM,46.4,42.8,87,29.42,6.2,WSW,20.7,-,N/A,,Mostly Cloudy,240,2013-05-14 08:50:00
10:20 AM,46.4,42.8,87,29.42,6.2,WSW,16.1,-,N/A,,Scattered Clouds,240,2013-05-14 09:20:00
10:50 AM,48.2,42.8,82,29.42,6.2,SW,16.1,-,N/A,,Scattered Clouds,230,2013-05-14 09:50:00
11:20 AM,46.4,42.8,87,29.42,6.2,SW,16.1,-,N/A,,Mostly Cloudy,230,2013-05-14 10:20:00
11:50 AM,48.2,42.8,82,29.39,6.2,SW,15.0,-,N/A,,Mostly Cloudy,230,2013-05-14 10:50:00
12:20 PM,48.2,41.0,76,29.39,6.2,NNW,8.1,-,N/A,Rain,Rain Showers,340,2013-05-14 11:20:00
12:50 PM,50.0,42.8,76,29.39,5.6,NNE,5.8,-,N/A,,Mostly Cloudy,30,2013-05-14 11:50:00
1:20 PM,53.6,41.0,62,29.39,6.2,West,9.2,-,N/A,,Mostly Cloudy,260,2013-05-14 12:20:00
1:50 PM,51.8,39.2,62,29.39,6.2,West,12.7,-,N/A,Rain,Light Rain Showers,260,2013-05-14 12:50:00
2:20 PM,55.4,39.2,54,29.36,6.2,West,11.5,-,N/A,,Mostly Cloudy,270,2013-05-14 13:20:00
2:50 PM,57.2,35.6,44,29.36,6.2,SW,11.5,-,N/A,,Mostly Cloudy,230,2013-05-14 13:50:00
3:20 PM,55.4,41.0,58,29.36,6.2,SW,11.5,-,N/A,,Scattered Clouds,230,2013-05-14 14:20:00
3:50 PM,50.0,41.0,71,29.39,6.2,WSW,19.6,-,N/A,Rain,Light Rain Showers,240,2013-05-14 14:50:00
4:20 PM,48.2,44.6,87,29.39,6.2,West,12.7,-,N/A,Rain,Light Rain Showers,260,2013-05-14 15:20:00
4:50 PM,46.4,41.0,81,29.42,6.2,NNE,15.0,-,N/A,Rain,Light Rain Showers,30,2013-05-14 15:50:00
5:20 PM,44.6,41.0,87,29.42,5.6,North,8.1,-,N/A,Rain,Rain,10,2013-05-14 16:20:00
5:50 PM,46.4,42.8,87,29.44,5.6,North,8.1,-,N/A,Rain,Light Rain,10,2013-05-14 16:50:00
6:20 PM,44.6,41.0,87,29.44,5.6,North,11.5,-,N/A,Rain,Rain,360,2013-05-14 17:20:00
6:50 PM,46.4,42.8,87,29.44,6.2,NNE,13.8,-,N/A,Rain,Light Rain,30,2013-05-14 17:50:00
7:20 PM,46.4,42.8,87,29.44,6.2,NNE,16.1,-,N/A,,Mostly Cloudy,30,2013-05-14 18:20:00
7:50 PM,46.4,42.8,87,29.47,6.2,North,13.8,-,N/A,,Mostly Cloudy,10,2013-05-14 18:50:00
8:20 PM,46.4,41.0,81,29.47,6.2,North,12.7,-,N/A,,Mostly Cloudy,10,2013-05-14 19:20:00